カタログに戻る

FENGYUN 1C DEB

運用中SSO
NORAD 31558·DEBRIS·🇨🇳 China

打ち上げ May 10, 1999 から Taiyuan Satellite Launch Center

Loading…

次のパス (今後24時間)

TLE

最新Source: Space-Track

元期: Sep 12, 2026, 12:33 UTC

1 31558U 99025BYZ 26255.52299921  .00000310  00000-0  91005-4 0  9999
2 31558  98.7672 162.5554 0210641 169.4545   5.3536 14.39149974 13714

AllMySatでFENGYUN 1C DEBをリアルタイム追跡

Download on the App Store